Showing default

SIRIUS 3, 25492

Orbit data source: Space-Track

SIRIUS 3, 25492 is a payload satellite owned by NSAB (LU) in GEO that was launched on Mon, 05 Oct 1998 UTC via an ARIANE 44L launch vehicle from the French Guiana (FRGUI). Payloads include a variety of satellites, spacecraft, and rockets equipped with specific instruments for various scientific and technological missions. These include communications satellites like Starlink; space stations such as the ISS; scientific satellites like the Hubble; Earth observation satellites from companies like Planet Labs, Umbra, and HawkEye 360; GPS; miniature CubeSats for education and research; and military/defense satellites.

Loading next visibility...
SIRIUS 3 details
Identifier
25492, 1998-056B
Orbit
GEO
Last TLE update1 day ago
Origin
Flag of LUNSAB (LU / SES)
ManufacturerHughes
MissionNon-operational Commercial Communications
Bus & MotorHS-376HP, STAR 30
Mass1,420 kg wet, 597 kg dry
Launch date (UTC)
1998-10-05 (26 years ago)
Launch vehicle
ARIANE 44L
Launch site
French Guiana (FRGUI)
Object type
Payload
Rocket body
Debris
Shape & HBRCyl, 7.75 m
Radar Cross Section14.980 m², Large (>1 m²)

Expand to show TLE details & history

TLE from 1 day ago
0 SIRIUS 3
1 25492U 98056B   25014.15705611  .00000048  00000-0  00000-0 0  9990
2 25492  10.8920  38.1603 0000047 187.3361 174.3923  0.99033315 95988
Epoch: 2025-01-14T03:46Z
Definitive object data (Epoch: 2025-01-14T03:46:09.647Z)
Latitude0.3203°
Longitude-130.53152°
Altitude36,137.085 km
Speed3.062 km/s
True Right ascension02h 39m 30s
True Declination0° 19' 12"
Sunlit
Object was in daylight at TLE epoch
Visualization TLE readout
Latitude9.82289°
Longitude-16.02786°
Altitude36,136.074 km
Speed3.062 km/s
Apparent Right ascension10h 02m 14s
Apparent Declination4° 48' 18"
Sunlit
Object is in daylight
Visualization observer readout
Local Sidereal Time12:21:06
Azimuth230.891° WSW
Elevation42.999°
Doppler factor1
Orbital elements
Apogee altitude36,138.603 km
Perigee altitude36,138.203 km
Semi-major axis42,516.54 km
Eccentricity0.0000047
Inclination10.892°
RAAN38.1603°
Arg. of periapsis187.3361°
True anomaly174.39235°
Mean anomaly174.3923°
Eccentric anomaly174.39233°
Mean motion0.24757 °/min
BSTARUnknown
Orbital period1454.11 mins
Loading historical data...
25492 neighbors
Authenticating...
Loading maneuver chart data...
Loading historical data...
Loading historical data...
Loading historical data...
Loading historical data...
Loading historical data...
Loading historical data...
Loading historical data...
Other satellites on launch #56 in the year 1998 (1998-10-05 UTC)

SIRIUS 3 Visibility forecast

Observer location: undefined°, undefined

Span
Click to sort rows by Start time (UTC) header in descending order
Start Az.
Max El. time (UTC)
Max El. Az.
Max El.
End time (UTC)
End Az.
1440 mins2025-01-15 11:40:52.123Z230.874° WSW2025-01-15 11:40:52.123Z230.874° WSW34.288°2025-01-16 11:40:52.123Z236.296° WSW
|